This is the latest recevied weather packets stored in our database for station/object DC4THF-13. If no packets are shown the sender has not sent any weather packets the latest 10 day(s).
| Time | Temp. | Humidity | Pressure | Rain* | Wind** | Luminosity | Snow |
|---|---|---|---|---|---|---|---|
| 1787779987 | 15.56° C | 70% | 1014.9 hPa | 0 mm | - | - | - |
| 1787779384 | 15° C | 70% | 1015 hPa | 0 mm | - | - | - |
| 1787778781 | 15° C | 71% | 1015 hPa | 0 mm | - | - | - |
| 1787778178 | 15° C | 72% | 1014.9 hPa | 0 mm | - | - | - |
| 1787777575 | 14.44° C | 72% | 1014.8 hPa | 0 mm | - | - | - |
| 1787776972 | 14.44° C | 73% | 1014.8 hPa | 0 mm | - | - | - |
| 1787776370 | 13.89° C | 73% | 1014.8 hPa | 0 mm | - | - | - |
| 1787775767 | 14.44° C | 72% | 1014.8 hPa | 0 mm | - | - | - |
| 1787775164 | 14.44° C | 72% | 1014.8 hPa | 0 mm | - | - | - |
| 1787774561 | 15° C | 71% | 1014.9 hPa | 0 mm | - | - | - |
| 1787773958 | 15.56° C | 70% | 1014.7 hPa | 0 mm | - | - | - |
| 1787773355 | 16.11° C | 69% | 1014.8 hPa | 0 mm | - | - | - |
| 1787772752 | 16.67° C | 67% | 1014.7 hPa | 0 mm | - | - | - |
| 1787772149 | 17.22° C | 65% | 1014.5 hPa | 0 mm | - | - | - |
| 1787771546 | 17.78° C | 61% | 1014.4 hPa | 0 mm | - | - | - |
| 1787770943 | 17.78° C | 61% | 1014.4 hPa | 0 mm | - | - | - |
| 1787770339 | 18.33° C | 60% | 1014.3 hPa | 0 mm | - | - | - |
| 1787769736 | 18.33° C | 60% | 1014.3 hPa | 0 mm | - | - | - |
| 1787769132 | 18.89° C | 59% | 1014.2 hPa | 0 mm | - | - | - |
| 1787768588 | 18.89° C | 58% | 1014.2 hPa | 0 mm | - | - | - |
| 1787767985 | 19.44° C | 56% | 1014 hPa | 0 mm | - | - | - |
| 1787767381 | 19.44° C | 55% | 1014.1 hPa | 0 mm | - | - | - |
| 1787766777 | 20° C | 54% | 1014 hPa | 0 mm | - | - | - |
| 1787766174 | 20.56° C | 53% | 1013.9 hPa | 0 mm | - | - | - |
| 1787765570 | 20.56° C | 52% | 1013.8 hPa | 0 mm | - | - | - |
* Rain latest hour (hover to see other rain measurements)
** Current wind speed in m/s (hover to see current wind gust speed)